EW9675 Weather Reports


Display with metric or nautical units.
time (UTC)temp
F
wind
direction
speed
MPH
gust
MPH
rain 1hr
in
rain 24hr
in
rain mn
in
humidity
%
barometer
mb
20260903075504 61 222 5.0 9.0 0.00 0.02 0.02 68 1018.6
20260903075004 61 211 6.0 11.0 0.00 0.02 0.02 68 1018.4
20260903074504 61 213 6.0 11.0 0.00 0.02 0.02 67 1018.3
20260903074004 62 220 5.0 11.0 0.00 0.02 0.02 67 1018.3
20260903073504 62 215 5.0 15.0 0.00 0.02 0.02 68 1018.2
20260903073004 61 203 5.0 15.0 0.00 0.02 0.02 69 1018.2
20260903072504 61 204 6.0 10.0 0.00 0.02 0.02 69 1018.2
20260903072004 61 208 6.0 13.0 0.00 0.02 0.02 69 1018.2
20260903071504 61 212 6.0 14.0 0.00 0.02 0.02 69 1018.2
20260903071004 61 212 5.0 14.0 0.00 0.02 0.02 69 1018.2
20260903070525 62 203 5.0 11.0 0.00 0.02 0.02 69 1018.2
20260903070004 62 199 6.0 14.0 0.00 0.02 0.02 69 1018.1
20260903065504 62 199 6.0 14.0 0.00 0.02 0.02 70 1018.1
20260903065004 62 207 6.0 11.0 0.00 0.02 0.02 70 1018.1
20260903064504 62 216 6.0 13.0 0.00 0.02 0.02 70 1018.0
20260903064004 62 212 5.0 13.0 0.00 0.02 0.02 70 1018.0
20260903063504 62 219 5.0 9.0 0.00 0.02 0.02 72 1018.0
20260903063004 62 241 6.0 10.0 0.00 0.02 0.02 72 1018.0
20260903062504 62 225 7.0 11.0 0.00 0.02 0.02 71 1018.0
20260903062004 62 219 8.0 11.0 0.00 0.02 0.02 71 1018.1
20260903061504 62 224 8.0 13.0 0.00 0.02 0.02 70 1018.2
20260903061004 62 223 8.0 14.0 0.00 0.02 0.02 70 1018.2
20260903060504 62 228 9.0 14.0 0.00 0.02 0.02 70 1018.1
20260903060004 62 242 9.0 17.0 0.00 0.02 0.02 69 1018.1
20260903055525 63 246 10.0 17.0 0.00 0.02 0.02 68 1018.0
20260903055004 63 238 9.0 18.0 0.00 0.02 0.02 70 1018.0
20260903054525 63 232 8.0 18.0 0.00 0.02 0.02 69 1018.0
20260903054004 63 230 8.0 17.0 0.00 0.02 0.02 70 1018.0
20260903053504 63 239 8.0 14.0 0.00 0.02 0.02 71 1018.0
20260903053004 63 236 8.0 14.0 0.00 0.02 0.02 70 1017.9
20260903052504 63 236 9.0 15.0 0.00 0.02 0.02 71 1017.9
20260903052004 62 243 10.0 17.0 0.00 0.02 0.02 72 1017.9
20260903051525 62 241 10.0 20.0 0.00 0.02 0.02 74 1017.9
20260903051004 62 232 10.0 20.0 0.00 0.02 0.02 73 1017.9
20260903050504 62 225 10.0 17.0 0.00 0.02 0.02 73 1017.9
20260903050004 62 233 10.0 17.0 0.00 0.02 0.02 73 1017.7
20260903045504 62 240 9.0 17.0 0.00 0.02 0.02 74 1017.7
20260903045004 62 236 9.0 14.0 0.00 0.02 0.02 75 1017.7
20260903044525 62 234 11.0 17.0 0.00 0.02 0.02 76 1017.7
20260903044025 61 240 11.0 19.0 0.00 0.02 0.02 77 1017.7
20260903043525 61 237 11.0 19.0 0.00 0.02 0.02 76 1017.7
20260903043025 62 238 11.0 17.0 0.00 0.02 0.02 74 1017.6
20260903042525 62 247 10.0 20.0 0.00 0.02 0.02 74 1017.5
20260903042004 62 253 9.0 20.0 0.00 0.02 0.02 75 1017.4
20260903041525 62 252 9.0 15.0 0.00 0.02 0.02 76 1017.4
20260903041004 62 236 9.0 17.0 0.00 0.02 0.02 76 1017.4
20260903040504 62 230 9.0 17.0 0.00 0.02 0.02 75 1017.4
20260903040004 62 242 9.0 15.0 0.00 0.02 0.02 75 1017.4
20260903035504 62 235 9.0 17.0 0.00 0.02 0.02 76 1017.5
20260903035004 62 225 8.0 17.0 0.00 0.02 0.02 76 1017.5
20260903034503 62 235 8.0 15.0 0.00 0.02 0.02 77 1017.5
20260903034003 62 239 8.0 15.0 0.00 0.02 0.02 77 1017.6
20260903033525 61 243 8.0 13.0 0.00 0.02 0.02 78 1017.6
20260903033004 61 233 8.0 14.0 0.00 0.02 0.02 79 1017.6
20260903032503 61 225 9.0 15.0 0.00 0.02 0.02 80 1017.7
20260903032003 60 229 10.0 15.0 0.00 0.02 0.02 80 1017.7
20260903031504 60 240 9.0 17.0 0.00 0.02 0.02 80 1017.6
20260903031025 61 247 9.0 17.0 0.00 0.02 0.02 81 1017.7
20260903030504 61 242 9.0 17.0 0.01 0.02 0.02 83 1017.6
20260903030004 60 245 9.0 17.0 0.01 0.02 0.02 84 1017.6
20260903025503 60 244 8.0 17.0 0.02 0.02 0.02 85 1017.6
20260903025003 60 242 7.0 17.0 0.02 0.02 0.02 86 1017.6
20260903024503 59 243 7.0 14.0 0.02 0.02 0.02 86 1017.6
20260903024004 59 242 7.0 13.0 0.02 0.02 0.02 87 1017.6
20260903023504 59 240 8.0 11.0 0.02 0.02 0.02 87 1017.8
20260903023004 59 243 8.0 14.0 0.02 0.02 0.02 87 1017.8
20260903022504 59 249 8.0 14.0 0.02 0.02 0.02 88 1017.8
20260903022004 59 248 9.0 15.0 0.02 0.02 0.02 88 1017.8
20260903021503 58 249 10.0 17.0 0.02 0.02 0.02 87 1017.9
20260903021003 58 252 12.0 23.0 0.02 0.02 0.02 87 1017.8
20260903020504 59 258 14.0 23.0 0.01 0.01 0.01 86 1017.8
20260903020004 59 264 14.0 27.0 0.01 0.01 0.01 85 1017.8
20260903015503 59 268 14.0 29.0 0.00 0.00 0.00 83 1017.8
20260903015004 60 269 13.0 29.0 0.00 0.00 0.00 81 1017.7
20260903014503 60 271 13.0 24.0 0.00 0.00 0.00 80 1017.6
20260903014003 60 274 14.0 24.0 0.00 0.00 0.00 79 1017.5
20260903013503 61 274 14.0 24.0 0.00 0.00 0.00 78 1017.6
20260903013004 61 272 15.0 24.0 0.00 0.00 0.00 79 1017.6
20260903012525 61 268 15.0 24.0 0.00 0.00 0.00 79 1017.5
20260903012003 61 268 13.0 25.0 0.00 0.00 0.00 79 1017.5
20260903011503 60 274 13.0 25.0 0.00 0.00 0.00 80 1017.5
20260903011004 60 276 13.0 23.0 0.00 0.00 0.00 80 1017.6
20260903010503 60 273 13.0 29.0 0.00 0.00 0.00 80 1017.6
20260903010003 60 274 13.0 29.0 0.00 0.00 0.00 80 1017.6
20260903005503 60 275 12.0 25.0 0.00 0.00 0.00 81 1017.6
20260903005003 60 271 10.0 25.0 0.00 0.00 0.00 81 1017.6
20260903004504 60 265 10.0 19.0 0.00 0.00 0.00 81 1017.5
20260903004004 60 266 10.0 20.0 0.00 0.00 0.00 82 1017.6
20260903003504 60 269 11.0 20.0 0.00 0.00 0.00 82 1017.6
20260903003025 59 267 12.0 19.0 0.00 0.00 0.00 82 1017.5
20260903002503 59 271 13.0 20.0 0.00 0.00 0.00 82 1017.6
20260903002025 59 278 15.0 27.0 0.00 0.00 0.00 82 1017.5
20260903001503 59 282 14.0 27.0 0.00 0.00 0.00 83 1017.5
20260903001004 59 279 12.0 27.0 0.00 0.00 0.00 83 1017.5
20260903000524 58 280 10.0 19.0 0.00 0.00 0.00 85 1017.5
20260903000003 58 291 7.0 19.0 0.00 0.00 0.00 86 1017.5
20260902235503 57 303 6.0 18.0 0.00 0.00 0.00 88 1017.5
20260902235003 56 313 7.0 13.0 0.00 0.00 0.00 87 1017.5
20260902234504 55 332 7.0 13.0 0.00 0.00 0.00 87 1017.4
20260902234003 55 346 7.0 13.0 0.00 0.00 0.00 88 1017.3
20260902233503 54 345 6.0 10.0 0.00 0.00 0.00 88 1017.4
20260902233004 54 343 6.0 10.0 0.00 0.00 0.00 88 1017.5
20260902232503 54 347 7.0 10.0 0.00 0.00 0.00 88 1017.5
20260902232003 54 343 7.0 11.0 0.00 0.00 0.00 88 1017.5
20260902231503 53 341 7.0 13.0 0.00 0.00 0.00 88 1017.3
20260902231003 53 333 6.0 13.0 0.00 0.00 0.00 89 1017.2
20260902230503 53 335 7.0 11.0 0.00 0.00 0.00 88 1017.4
20260902230004 52 339 7.0 11.0 0.00 0.00 0.00 89 1017.2
20260902225524 52 344 7.0 11.0 0.00 0.00 0.00 88 1017.2
20260902225003 52 350 7.0 11.0 0.00 0.00 0.00 89 1017.2
20260902224503 52 346 7.0 11.0 0.00 0.00 0.00 89 1017.1
20260902224024 52 337 6.0 11.0 0.00 0.00 0.00 88 1017.0
20260902223503 51 327 6.0 10.0 0.00 0.00 0.00 88 1016.9
20260902223003 51 335 7.0 11.0 0.00 0.00 0.00 89 1016.9
20260902222504 51 328 6.0 13.0 0.00 0.00 0.00 89 1016.8
20260902222004 51 320 5.0 13.0 0.00 0.00 0.00 89 1016.7
20260902221524 51 321 6.0 10.0 0.00 0.00 0.00 89 1016.6
20260902221003 51 324 6.0 17.0 0.00 0.00 0.00 89 1016.6
20260902220504 51 324 5.0 17.0 0.00 0.00 0.00 89 1016.4
20260902220003 51 324 5.0 10.0 0.00 0.00 0.00 89 1016.3
20260902215503 51 339 5.0 11.0 0.00 0.00 0.00 89 1016.3
20260902215003 50 338 5.0 11.0 0.00 0.00 0.00 89 1016.2
20260902214503 50 337 6.0 11.0 0.00 0.00 0.00 89 1016.2
20260902214004 50 343 6.0 11.0 0.00 0.00 0.00 89 1016.1
20260902213503 50 342 5.0 10.0 0.00 0.00 0.00 89 1015.9
20260902213004 51 339 5.0 9.0 0.00 0.00 0.00 89 1015.9
20260902212503 50 335 5.0 11.0 0.00 0.00 0.00 89 1015.9
20260902212003 50 333 5.0 11.0 0.00 0.00 0.00 89 1015.9
20260902211503 51 336 7.0 11.0 0.00 0.00 0.00 89 1015.8
20260902211004 51 338 8.0 11.0 0.00 0.00 0.00 89 1015.8
20260902210503 51 347 9.0 14.0 0.00 0.00 0.00 88 1015.7
20260902210003 51 351 9.0 14.0 0.00 0.00 0.00 88 1015.5
20260902205504 51 345 8.0 14.0 0.00 0.00 0.00 88 1015.4
20260902205004 51 330 8.0 14.0 0.00 0.00 0.00 88 1015.6
20260902204504 52 317 7.0 14.0 0.00 0.00 0.00 88 1015.5
20260902204024 52 317 6.0 11.0 0.00 0.00 0.00 88 1015.6
20260902203503 52 319 6.0 10.0 0.00 0.00 0.00 88 1015.6
20260902203003 52 317 6.0 10.0 0.00 0.00 0.00 88 1015.6
20260902202504 52 321 6.0 15.0 0.00 0.01 0.00 88 1015.5
20260902202025 52 329 6.0 15.0 0.00 0.01 0.00 88 1015.4
20260902201504 52 323 7.0 13.0 0.00 0.01 0.00 88 1015.4
20260902201004 52 310 7.0 11.0 0.00 0.01 0.00 88 1015.3
20260902200525 52 307 6.0 13.0 0.00 0.01 0.00 88 1015.2
20260902200004 52 317 6.0 13.0 0.00 0.01 0.00 87 1015.1
20260902195525 52 323 6.0 9.0 0.00 0.01 0.00 87 1015.1
20260902195025 52 323 6.0 10.0 0.00 0.01 0.00 87 1015.1
20260902194504 52 321 7.0 10.0 0.00 0.01 0.00 87 1015.0
20260902194025 52 318 8.0 11.0 0.00 0.01 0.00 87 1015.0
20260902193504 52 322 8.0 14.0 0.00 0.01 0.00 87 1014.8
20260902193004 52 319 8.0 14.0 0.00 0.01 0.00 86 1014.7
20260902192504 52 316 8.0 14.0 0.00 0.01 0.00 86 1014.6
20260902192004 52 320 8.0 13.0 0.00 0.01 0.00 86 1014.6
20260902191504 53 316 8.0 13.0 0.00 0.01 0.00 86 1014.6
20260902191004 53 310 8.0 13.0 0.00 0.01 0.00 86 1014.6
20260902190525 53 308 8.0 13.0 0.00 0.01 0.00 85 1014.5
20260902190025 53 304 9.0 13.0 0.00 0.01 0.00 85 1014.4
20260902185504 53 295 9.0 15.0 0.00 0.01 0.00 85 1014.4
20260902185004 53 291 9.0 15.0 0.00 0.01 0.00 84 1014.4
20260902184504 53 292 9.0 14.0 0.00 0.01 0.00 84 1014.3
20260902184025 54 291 9.0 15.0 0.00 0.01 0.00 84 1014.4
20260902183525 54 290 9.0 15.0 0.00 0.01 0.00 83 1014.3
20260902183004 54 290 9.0 18.0 0.00 0.01 0.00 83 1014.3
20260902182504 54 291 10.0 18.0 0.00 0.01 0.00 83 1014.2
20260902182004 54 288 9.0 17.0 0.00 0.01 0.00 82 1014.1
20260902181525 54 287 9.0 17.0 0.00 0.01 0.00 82 1014.2
20260902181004 54 292 9.0 14.0 0.00 0.01 0.00 82 1014.2
20260902180504 54 294 10.0 14.0 0.00 0.01 0.00 81 1014.2
20260902180006 54 294 9.0 15.0 0.00 0.01 0.00 81 1014.1
20260902175504 54 297 9.0 15.0 0.00 0.01 0.00 81 1014.1
20260902175004 54 297 9.0 14.0 0.00 0.01 0.00 80 1014.1
20260902174504 54 295 9.0 13.0 0.00 0.01 0.00 80 1014.1
20260902174004 54 291 10.0 15.0 0.00 0.01 0.00 80 1014.1
20260902173504 54 290 10.0 15.0 0.00 0.01 0.00 80 1014.1
20260902173004 54 293 9.0 14.0 0.00 0.01 0.00 79 1014.1
20260902172504 54 298 9.0 15.0 0.00 0.01 0.00 79 1014.2
20260902172004 54 302 8.0 15.0 0.00 0.01 0.00 80 1014.2
20260902171504 54 309 6.0 14.0 0.00 0.01 0.00 80 1014.3
20260902171004 54 312 6.0 13.0 0.00 0.01 0.00 81 1014.3
20260902170504 54 316 7.0 10.0 0.00 0.01 0.00 80 1014.4
20260902170004 54 317 7.0 13.0 0.00 0.01 0.00 80 1014.4
20260902165504 54 309 8.0 13.0 0.00 0.01 0.00 79 1014.6
20260902165025 54 307 7.0 13.0 0.00 0.01 0.00 79 1014.6
20260902164504 54 301 6.0 13.0 0.00 0.01 0.00 79 1014.6
20260902164004 54 298 7.0 10.0 0.00 0.01 0.00 80 1014.6
20260902163504 54 303 7.0 10.0 0.00 0.01 0.00 80 1014.6
20260902163004 54 307 6.0 10.0 0.00 0.01 0.00 80 1014.6
20260902162504 54 308 7.0 13.0 0.00 0.01 0.00 80 1014.7
20260902162004 54 308 8.0 13.0 0.00 0.01 0.00 80 1014.7
20260902161504 54 309 8.0 15.0 0.00 0.01 0.00 80 1014.8
20260902161025 54 304 8.0 15.0 0.00 0.01 0.00 79 1014.8
20260902160504 55 296 9.0 14.0 0.00 0.01 0.00 77 1014.9
20260902160006 55 295 8.0 13.0 0.00 0.01 0.00 77 1014.9
20260902155525 55 297 8.0 13.0 0.00 0.01 0.00 78 1014.9
20260902155004 55 298 8.0 13.0 0.00 0.01 0.00 78 1014.9
20260902154504 55 296 9.0 13.0 0.00 0.01 0.00 78 1014.9
20260902154004 55 291 9.0 14.0 0.00 0.01 0.00 79 1014.9
20260902153504 55 292 9.0 14.0 0.00 0.01 0.00 79 1014.9
20260902153004 55 294 9.0 15.0 0.00 0.01 0.00 79 1015.0
20260902152525 55 292 10.0 15.0 0.00 0.01 0.00 79 1015.0
20260902152004 55 290 10.0 14.0 0.00 0.01 0.00 80 1014.9
20260902151504 55 292 10.0 15.0 0.00 0.01 0.00 80 1014.9
20260902151004 55 293 10.0 15.0 0.00 0.01 0.00 80 1015.0
20260902150504 55 294 10.0 15.0 0.00 0.01 0.00 80 1014.9
20260902150004 55 294 11.0 17.0 0.00 0.01 0.00 80 1014.9
20260902145504 55 291 11.0 17.0 0.00 0.01 0.00 80 1015.0
20260902145003 55 287 11.0 17.0 0.00 0.01 0.00 80 1015.0
20260902144504 54 286 10.0 17.0 0.00 0.01 0.00 80 1015.1
20260902144004 54 287 9.0 17.0 0.00 0.01 0.00 80 1015.1
20260902143504 54 286 9.0 14.0 0.00 0.01 0.00 80 1015.1
20260902143006 54 286 9.0 14.0 0.00 0.01 0.00 81 1015.1
20260902142504 54 288 9.0 14.0 0.00 0.01 0.01 81 1015.1
20260902142004 54 290 9.0 15.0 0.00 0.01 0.01 81 1015.1
20260902141504 54 291 8.0 15.0 0.00 0.01 0.01 80 1015.2
20260902141003 54 294 8.0 13.0 0.00 0.01 0.01 80 1015.1
20260902140503 54 296 9.0 11.0 0.00 0.01 0.01 80 1015.2
20260902140004 55 296 9.0 13.0 0.00 0.01 0.01 80 1015.2
20260902135525 55 295 9.0 15.0 0.00 0.01 0.01 80 1015.2
20260902135004 55 296 9.0 15.0 0.00 0.02 0.01 79 1015.3
20260902134525 55 289 9.0 14.0 0.00 0.02 0.01 79 1015.3
20260902134004 55 274 9.0 14.0 0.00 0.02 0.01 78 1015.3
20260902133525 55 270 9.0 14.0 0.00 0.02 0.01 79 1015.3
20260902133003 55 276 8.0 14.0 0.00 0.02 0.01 80 1015.4
20260902132524 55 276 7.0 14.0 0.00 0.02 0.01 81 1015.4
20260902132004 55 277 5.0 14.0 0.00 0.02 0.01 81 1015.4
20260902131503 55 288 5.0 9.0 0.00 0.02 0.01 81 1015.4
20260902131004 55 288 5.0 9.0 0.00 0.02 0.01 81 1015.4
20260902130504 55 283 6.0 10.0 0.00 0.02 0.01 80 1015.3
20260902130004 55 278 6.0 10.0 0.00 0.02 0.01 80 1015.4
20260902125504 55 271 6.0 10.0 0.00 0.02 0.01 80 1015.4
20260902125003 55 268 6.0 10.0 0.00 0.02 0.01 79 1015.4
20260902124524 55 272 6.0 10.0 0.00 0.02 0.01 79 1015.4
20260902124003 55 274 6.0 9.0 0.00 0.02 0.01 79 1015.4
20260902123503 55 268 6.0 11.0 0.00 0.02 0.01 79 1015.5
20260902123003 55 261 7.0 11.0 0.00 0.02 0.01 78 1015.5
20260902122504 55 261 8.0 11.0 0.00 0.02 0.01 78 1015.5
20260902122003 55 262 8.0 11.0 0.00 0.02 0.01 78 1015.5
20260902121504 55 262 8.0 13.0 0.00 0.02 0.01 78 1015.5
20260902121004 55 263 7.0 13.0 0.00 0.02 0.01 78 1015.5
20260902120503 55 264 6.0 11.0 0.00 0.02 0.01 78 1015.5
20260902120004 55 262 6.0 10.0 0.00 0.02 0.01 78 1015.5
20260902115524 55 259 6.0 10.0 0.00 0.02 0.01 78 1015.5
20260902115003 55 251 6.0 10.0 0.00 0.02 0.01 78 1015.4
20260902114504 55 249 6.0 11.0 0.00 0.02 0.01 77 1015.3
20260902114003 55 249 7.0 11.0 0.00 0.02 0.01 77 1015.3
20260902113503 55 249 8.0 10.0 0.00 0.02 0.01 76 1015.2
20260902113024 55 257 7.0 13.0 0.00 0.02 0.01 76 1015.2
20260902112504 55 262 7.0 13.0 0.00 0.02 0.01 76 1015.1
20260902112025 55 259 7.0 10.0 0.00 0.02 0.01 75 1015.1
20260902111503 56 256 8.0 14.0 0.00 0.02 0.01 75 1015.1
20260902111004 56 255 9.0 14.0 0.00 0.02 0.01 74 1015.0
20260902110503 56 259 9.0 15.0 0.00 0.02 0.01 74 1015.1
20260902110025 56 267 9.0 15.0 0.00 0.02 0.01 74 1015.1
20260902105504 56 269 10.0 15.0 0.00 0.02 0.01 73 1015.1
20260902105003 56 272 11.0 17.0 0.00 0.02 0.01 73 1015.1
20260902104525 56 276 10.0 17.0 0.00 0.02 0.01 72 1015.0
20260902104003 56 278 9.0 17.0 0.00 0.02 0.01 72 1015.0
20260902103503 56 279 9.0 13.0 0.00 0.02 0.01 71 1015.0
20260902103003 56 284 8.0 11.0 0.00 0.02 0.01 71 1014.8
20260902102503 56 284 8.0 11.0 0.00 0.02 0.01 70 1014.7
20260902102025 56 281 8.0 11.0 0.00 0.02 0.01 70 1014.6
20260902101503 56 280 8.0 13.0 0.00 0.02 0.01 70 1014.7
20260902101003 56 285 8.0 13.0 0.00 0.02 0.01 70 1014.7
20260902100504 56 287 8.0 13.0 0.00 0.02 0.01 70 1014.6
20260902100025 56 284 8.0 11.0 0.00 0.02 0.01 69 1014.5
20260902095504 56 285 7.0 11.0 0.00 0.02 0.01 69 1014.6
20260902095003 55 283 7.0 11.0 0.00 0.02 0.01 69 1014.6
20260902094525 55 280 8.0 10.0 0.00 0.02 0.01 69 1014.6
20260902094003 55 280 8.0 13.0 0.00 0.02 0.01 69 1014.5
20260902093504 55 282 8.0 13.0 0.00 0.02 0.01 70 1014.4
20260902093004 55 284 8.0 11.0 0.00 0.02 0.01 70 1014.4
20260902092503 55 285 8.0 11.0 0.00 0.02 0.01 71 1014.4
20260902092003 55 286 8.0 11.0 0.00 0.02 0.01 71 1014.5
20260902091503 55 282 8.0 13.0 0.00 0.02 0.01 71 1014.4
20260902091003 55 280 8.0 13.0 0.00 0.02 0.01 70 1014.2
20260902090503 55 283 8.0 13.0 0.00 0.02 0.01 70 1014.3
20260902090004 55 281 8.0 13.0 0.00 0.02 0.01 70 1014.3
20260902085504 55 277 8.0 13.0 0.00 0.02 0.01 70 1014.2
20260902085004 55 279 8.0 13.0 0.00 0.02 0.01 70 1014.2
20260902084503 56 278 8.0 14.0 0.00 0.02 0.01 70 1014.1
20260902084003 56 277 8.0 14.0 0.00 0.02 0.01 69 1014.1
20260902083504 56 277 10.0 14.0 0.00 0.02 0.01 69 1014.1
20260902083003 56 274 10.0 15.0 0.00 0.02 0.01 68 1014.0
20260902082503 56 270 10.0 18.0 0.00 0.02 0.01 67 1013.9
20260902082024 57 267 9.0 18.0 0.00 0.02 0.01 67 1013.9
20260902081504 57 271 9.0 17.0 0.00 0.02 0.01 68 1013.9
20260902081024 58 273 9.0 17.0 0.00 0.03 0.01 68 1013.8
20260902080504 58 279 9.0 15.0 0.00 0.03 0.01 68 1013.8
20260902080004 57 276 9.0 15.0 0.00 0.04 0.01 69 1013.9